Weather in Lamezia Terme

Italy     38°57′59″N   16°17′54″E
temp.,
°C
wind,
m/s
gust,
m/s
humid.,
%
clouds,
%
prec.,
mm/h
press.,
hPa
HPBL,
m
29 june, wed
wed2923:00+24ne22341 0.0 101516
02:00+23nnw22374 0.0 101518
05:00+21ne224860 0.0 101424
08:00+25wnw124996 0.0 1014185
11:00+30wsw33423 0.0 1013571
14:00+31wsw44440 0.0 1013635
17:00+28wsw44560 0.0 1013528
20:00+22w349016 0.0 1013257
30 june, thu
thu3023:00+20nnw229412 0.0 101374
02:00+19nnw239220 0.0 1014136
05:00+19nw239324 0.0 1014157
08:00+23wnw11690 0.0 1013266
11:00+29wsw32390 0.0 1013784
14:00+30wsw43410 0.0 1013776
17:00+30wsw33290 0.0 1012633
20:00+22wnw12620 0.0 101337
1 july, fri
fri123:00+20ne22450 0.0 101525
02:00+19ne22350 0.0 101535
05:00+19nne22320 0.0 101428
08:00+26w11343 0.0 1015207
11:00+33ssw22251 0.0 1015830
14:00+33wsw342788 0.0 10141021
17:00+33w54266 0.0 1014757
20:00+24nw12510 0.0 101626
2 july, sat
sat223:00+23n22300 0.0 101629
02:00+22nne22330 0.0 101625
05:00+22n22400 0.0 101627
08:00+27w23400 0.0 1016255
11:00+31w44360 0.0 1017702
14:00+31w55370 0.0 1016761
17:00+30wsw44410 0.0 1016650
20:00+23w22720 0.0 101768
3 july, sun
sun323:00+21ene11710 0.0 101817
02:00+21ne21590 0.0 101720
05:00+21nne11620 0.0 101723
08:00+27wnw11460 0.0 1017247
11:00+31wsw43420 0.0 10171196
14:00+31wsw43413 0.0 10171098
17:00+30wsw32448 0.0 10161050
20:00+24sw11680 0.0 101735